TimeEDT,TemperatureF,Dew PointF,Humidity,Sea Level PressureIn,VisibilityMPH,Wind Direction,Wind SpeedMPH,Gust SpeedMPH,PrecipitationIn,Events,Conditions,WindDirDegrees,DateUTC
12:15 AM,60.8,55.6,83,30.17,10.0,SSE,4.6,-,N/A,,Clear,150,2013-04-24 04:15:00
12:35 AM,60.3,55.6,85,30.18,10.0,SSE,3.5,-,N/A,,Clear,150,2013-04-24 04:35:00
12:55 AM,59.9,55.8,86,30.17,10.0,SE,3.5,-,N/A,,Clear,140,2013-04-24 04:55:00
1:15 AM,59.5,55.9,88,30.17,10.0,SSE,3.5,-,N/A,,Clear,160,2013-04-24 05:15:00
1:35 AM,57.9,55.4,91,30.17,10.0,South,4.6,-,N/A,,Clear,170,2013-04-24 05:35:00
1:55 AM,59.0,56.1,90,30.17,10.0,SSE,6.9,-,N/A,,Clear,160,2013-04-24 05:55:00
2:15 AM,58.8,55.4,88,30.17,10.0,SSE,5.8,-,N/A,,Clear,160,2013-04-24 06:15:00
2:35 AM,58.1,55.0,90,30.16,10.0,SSE,4.6,-,N/A,,Clear,160,2013-04-24 06:35:00
2:55 AM,57.6,54.9,91,30.16,10.0,SSE,4.6,-,N/A,,Clear,150,2013-04-24 06:55:00
3:15 AM,57.2,54.7,91,30.15,10.0,SSE,3.5,-,N/A,,Clear,150,2013-04-24 07:15:00
3:35 AM,56.7,54.5,92,30.15,10.0,SSE,4.6,-,N/A,,Clear,160,2013-04-24 07:35:00
3:55 AM,56.5,54.5,93,30.15,10.0,SSE,4.6,-,N/A,,Clear,160,2013-04-24 07:55:00
4:15 AM,56.3,54.1,92,30.14,10.0,South,4.6,-,N/A,,Clear,170,2013-04-24 08:15:00
4:35 AM,55.8,54.0,94,30.14,7.0,SSE,3.5,-,N/A,,Clear,160,2013-04-24 08:35:00
4:55 AM,55.6,53.8,94,30.15,7.0,Calm,Calm,-,N/A,,Clear,0,2013-04-24 08:55:00
5:15 AM,54.9,53.2,94,30.15,3.0,Calm,Calm,-,N/A,,Clear,0,2013-04-24 09:15:00
5:35 AM,54.0,52.5,95,30.15,0.2,Calm,Calm,-,N/A,Fog,Fog,0,2013-04-24 09:35:00
5:55 AM,54.7,53.6,96,30.16,2.0,Calm,Calm,-,N/A,,Clear,0,2013-04-24 09:55:00
6:15 AM,53.4,52.2,95,30.16,1.5,ESE,3.5,-,N/A,,Mist,110,2013-04-24 10:15:00
6:55 AM,52.2,50.7,95,30.17,0.2,Calm,Calm,-,N/A,Fog,Fog,0,2013-04-24 10:55:00
7:15 AM,54.7,53.4,96,30.18,0.2,SE,3.5,-,N/A,Fog,Fog,130,2013-04-24 11:15:00
7:35 AM,55.4,54.0,95,30.18,0.2,SE,3.5,-,N/A,Fog,Fog,130,2013-04-24 11:35:00
7:55 AM,55.6,54.5,96,30.19,0.2,Calm,Calm,-,N/A,Fog,Fog,0,2013-04-24 11:55:00
8:15 AM,56.3,55.0,96,30.19,0.2,Calm,Calm,-,N/A,Fog,Fog,0,2013-04-24 12:15:00
8:35 AM,56.8,55.6,96,30.20,0.2,Calm,Calm,-,N/A,Fog,Fog,0,2013-04-24 12:35:00
8:55 AM,57.9,56.7,96,30.20,0.2,Calm,Calm,-,N/A,Fog,Fog,0,2013-04-24 12:55:00
9:15 AM,58.8,57.6,96,30.19,1.2,Calm,Calm,-,N/A,,Overcast,0,2013-04-24 13:15:00
9:35 AM,61.3,58.6,91,30.19,10.0,Calm,Calm,-,N/A,,Overcast,0,2013-04-24 13:35:00
9:55 AM,62.6,58.3,86,30.19,10.0,South,3.5,-,N/A,,Overcast,190,2013-04-24 13:55:00
10:15 AM,65.3,58.5,78,30.19,10.0,Calm,Calm,-,N/A,,Overcast,0,2013-04-24 14:15:00
10:35 AM,68.7,57.9,68,30.19,10.0,South,4.6,-,N/A,,Overcast,190,2013-04-24 14:35:00
10:55 AM,71.2,57.4,61,30.18,10.0,South,6.9,-,N/A,,Overcast,170,2013-04-24 14:55:00
11:15 AM,72.9,56.8,57,30.19,10.0,South,5.8,-,N/A,,Overcast,190,2013-04-24 15:15:00
11:35 AM,75.2,55.8,51,30.19,10.0,SSW,8.1,-,N/A,,Mostly Cloudy,200,2013-04-24 15:35:00
11:55 AM,75.9,56.1,50,30.20,10.0,SW,6.9,-,N/A,,Scattered Clouds,230,2013-04-24 15:55:00
12:15 PM,76.3,56.7,51,30.20,10.0,SSW,6.9,-,N/A,,Mostly Cloudy,200,2013-04-24 16:15:00
12:35 PM,78.1,57.9,50,30.19,10.0,SW,4.6,-,N/A,,Overcast,220,2013-04-24 16:35:00
12:55 PM,77.9,56.5,48,30.18,10.0,SW,4.6,-,N/A,,Mostly Cloudy,220,2013-04-24 16:55:00
1:15 PM,79.0,55.0,44,30.17,10.0,SW,8.1,-,N/A,,Mostly Cloudy,230,2013-04-24 17:15:00
1:35 PM,79.9,56.1,44,30.17,10.0,West,8.1,-,N/A,,Mostly Cloudy,280,2013-04-24 17:35:00
1:55 PM,80.6,56.3,43,30.16,10.0,WSW,5.8,-,N/A,,Mostly Cloudy,240,2013-04-24 17:55:00
2:15 PM,80.4,55.9,43,30.15,10.0,WSW,6.9,-,N/A,,Mostly Cloudy,240,2013-04-24 18:15:00
2:35 PM,81.9,55.2,40,30.15,10.0,West,8.1,-,N/A,,Scattered Clouds,260,2013-04-24 18:35:00
2:55 PM,81.5,55.8,41,30.14,10.0,SW,5.8,-,N/A,,Scattered Clouds,220,2013-04-24 18:55:00
3:15 PM,80.6,54.9,41,30.13,10.0,West,9.2,-,N/A,,Scattered Clouds,270,2013-04-24 19:15:00
3:35 PM,82.9,55.9,39,30.11,10.0,SSW,10.4,16.1,N/A,,Scattered Clouds,210,2013-04-24 19:35:00
3:55 PM,82.0,54.7,39,30.10,10.0,South,8.1,-,N/A,,Clear,190,2013-04-24 19:55:00
4:15 PM,83.1,55.6,39,30.09,10.0,WSW,8.1,17.3,N/A,,Clear,240,2013-04-24 20:15:00
4:35 PM,82.6,56.3,40,30.10,10.0,SW,6.9,-,N/A,,Scattered Clouds,220,2013-04-24 20:35:00
4:55 PM,81.7,54.5,39,30.10,10.0,WSW,10.4,18.4,N/A,,Mostly Cloudy,250,2013-04-24 20:55:00
5:15 PM,81.5,55.4,41,30.10,10.0,WSW,8.1,-,N/A,,Mostly Cloudy,240,2013-04-24 21:15:00
5:35 PM,80.6,56.3,43,30.10,10.0,WSW,5.8,-,N/A,,Overcast,250,2013-04-24 21:35:00
5:55 PM,81.3,55.6,41,30.10,10.0,West,10.4,-,N/A,,Mostly Cloudy,270,2013-04-24 21:55:00
6:15 PM,80.8,57.2,44,30.10,10.0,WSW,5.8,-,N/A,,Scattered Clouds,250,2013-04-24 22:15:00
6:35 PM,80.1,57.2,45,30.11,10.0,West,6.9,-,N/A,,Clear,270,2013-04-24 22:35:00
6:55 PM,79.5,57.4,47,30.10,10.0,Calm,Calm,-,N/A,,Clear,0,2013-04-24 22:55:00
7:15 PM,78.6,59.0,51,30.11,10.0,Calm,Calm,-,N/A,,Clear,0,2013-04-24 23:15:00
7:35 PM,77.5,59.2,53,30.11,10.0,Calm,Calm,-,N/A,,Clear,0,2013-04-24 23:35:00
7:55 PM,77.0,59.4,54,30.11,10.0,Calm,Calm,-,N/A,,Clear,0,2013-04-24 23:55:00
8:15 PM,74.7,60.3,61,30.11,10.0,Calm,Calm,-,N/A,,Scattered Clouds,0,2013-04-25 00:15:00
8:35 PM,72.0,61.0,68,30.12,10.0,Calm,Calm,-,N/A,,Scattered Clouds,0,2013-04-25 00:35:00
8:55 PM,70.9,60.8,70,30.12,10.0,Calm,Calm,-,N/A,,Scattered Clouds,0,2013-04-25 00:55:00
9:15 PM,69.8,61.3,74,30.12,10.0,Calm,Calm,-,N/A,,Scattered Clouds,0,2013-04-25 01:15:00
9:35 PM,70.5,61.9,74,30.13,10.0,Calm,Calm,-,N/A,,Scattered Clouds,0,2013-04-25 01:35:00
9:55 PM,72.0,61.7,70,30.13,10.0,Calm,Calm,-,N/A,,Mostly Cloudy,0,2013-04-25 01:55:00
11:15 PM,66.9,62.6,86,30.14,10.0,Calm,Calm,-,N/A,,Overcast,0,2013-04-25 03:15:00
11:35 PM,67.5,62.8,85,30.14,10.0,Calm,Calm,-,N/A,,Overcast,0,2013-04-25 03:35:00
11:55 PM,68.7,62.2,80,30.15,10.0,SW,4.6,-,N/A,,Overcast,220,2013-04-25 03:55:00